Knoxville, TN

3:35 PM EDT on May 26, 2017 (GMT -0400)
McGhee Tyson

Weather History for KTYS - February, 2013

Change the Weather History Date:

Saturday, February 23, 2013

  Actual Average Record
Temperature  
Mean Temperature 48 °F 44 °F  
Max Temperature 54 °F 55 °F 83 °F (1996)
Min Temperature 41 °F 34 °F 13 °F (1963)
Degree Days  
Heating Degree Days 17 21  
Month to date heating degree days 541 536  
Since 1 July heating degree days 2589 2798  
Cooling Degree Days 0 0  
Month to date cooling degree days 0 0  
Year to date cooling degree days 2 0  
Moisture  
Dew Point 45 °F    
Average Humidity 89    
Maximum Humidity 100    
Minimum Humidity 77    
Precipitation  
Precipitation 0.11 in 0.15 in 2.46 in (1962)
Month to date precipitation 1.86 3.50  
Year to date precipitation 14.53 7.82  
Snow  
Snow 0.00 in 0.10 in - ()
Month to date snowfall 1.2 1.4  
Since 1 July snowfall 2.6 4.9  
Snow Depth 0.00 in    
Sea Level Pressure  
Sea Level Pressure 29.93 in    
Wind  
Wind Speed 3 mph (WSW)    
Max Wind Speed 12 mph    
Max Gust Speed 15 mph    
Visibility 5 miles    
Events Rain    
T = Trace of Precipitation, MM = Missing Value Source: NWS Daily Summary

Daily Weather History Graph

Daily Weather History Graph

Search for Another Location

Airport or City:

Trip Planner

Search our weather history database for the weather conditions in past years. The results will help you decide how hot, cold, wet, or windy it might be!

Date:

Astronomy

Feb. 23, 2013 Rise Set
Actual Time 7:13 AM EST 6:25 PM EST
Civil Twilight 6:47 AM EST 6:51 PM EST
Nautical Twilight 6:17 AM EST 7:21 PM EST
Astronomical Twilight 5:48 AM EST 7:50 PM EST
Moon 4:37 PM EST (2/23) 5:32 AM EST (2/23)
Length of Visible Light 12h 04m
Length of Day
11h 12m
Waxing Gibbous, 95% of the Moon is Illuminated
Feb 23
Waxing Gibbous
Feb 25
Full
Mar 4
Last Quarter
Mar 11
New
Mar 19
First Quarter

Hourly Weather History & Observations

Time (EST) Temp. Windchill Dew Point Humidity Pressure Visibility Wind Dir Wind Speed Gust Speed Precip Events Conditions
12:53 AM 46.9 °F - 44.1 °F 90% 30.03 in 4.0 mi West 4.6 mph - 0.00 in   Light Drizzle
1:53 AM 46.0 °F 43.1 °F 44.1 °F 93% 30.01 in 5.0 mi West 5.8 mph - 0.00 in   Overcast
2:53 AM 46.0 °F 44.8 °F 44.1 °F 93% 30.01 in 3.0 mi SSW 3.5 mph - 0.02 in Rain Light Rain
3:26 AM 46.4 °F - 44.6 °F 93% 30.00 in 2.5 mi Calm Calm - 0.06 in Rain Light Rain
3:41 AM 46.4 °F - 44.6 °F 93% 29.98 in 4.0 mi Calm Calm - 0.08 in Rain Light Rain
3:50 AM 46.4 °F - 44.6 °F 93% 29.96 in 5.0 mi Calm Calm - 0.09 in Rain Light Rain
3:53 AM 45.0 °F - 44.1 °F 97% 29.96 in 5.0 mi Calm Calm - 0.09 in Rain Light Rain
4:03 AM 44.6 °F - 44.6 °F 100% 29.96 in 3.0 mi Calm Calm - 0.00 in Rain Light Rain
4:33 AM 44.6 °F - 44.6 °F 100% 29.95 in 2.5 mi Calm Calm - 0.00 in Rain Light Rain
4:45 AM 46.4 °F - 44.6 °F 93% 29.96 in 3.0 mi Calm Calm - 0.00 in Rain Light Rain
4:53 AM 46.0 °F - 44.1 °F 93% 29.95 in 4.0 mi Calm Calm - 0.00 in Rain Light Rain
5:53 AM 46.0 °F - 44.1 °F 93% 29.96 in 3.0 mi Calm Calm - 0.00 in   Overcast
6:53 AM 46.0 °F - 45.0 °F 96% 29.95 in 2.5 mi Calm Calm - N/A   Overcast
7:33 AM 46.4 °F - 44.6 °F 93% 29.95 in 2.5 mi Calm Calm - N/A   Overcast
7:53 AM 46.0 °F - 44.1 °F 93% 29.96 in 2.5 mi Calm Calm - N/A   Overcast
8:20 AM 46.4 °F - 44.6 °F 93% 29.96 in 1.5 mi Calm Calm - N/A   Overcast
8:53 AM 46.9 °F - 44.1 °F 90% 29.96 in 1.5 mi Calm Calm - N/A   Overcast
9:21 AM 48.2 °F - 44.6 °F 87% 29.96 in 2.5 mi Calm Calm - N/A   Overcast
9:53 AM 48.0 °F - 45.0 °F 89% 29.95 in 3.0 mi Calm Calm - N/A   Overcast
10:43 AM 48.2 °F - 44.6 °F 87% 29.94 in 4.0 mi NNW 4.6 mph - N/A   Overcast
10:53 AM 48.9 °F - 46.0 °F 90% 29.93 in 4.0 mi Calm Calm - N/A   Overcast
11:04 AM 48.2 °F - 46.4 °F 93% 29.93 in 4.0 mi NW 4.6 mph - N/A   Overcast
11:21 AM 50.0 °F - 46.4 °F 87% 29.94 in 4.0 mi North 3.5 mph - N/A   Overcast
11:53 AM 50.0 °F - 46.0 °F 86% 29.93 in 6.0 mi NNW 4.6 mph - N/A   Mostly Cloudy
12:53 PM 51.1 °F - 46.9 °F 86% 29.91 in 6.0 mi Calm Calm - N/A   Overcast
1:49 PM 51.8 °F - 46.4 °F 82% 29.90 in 6.0 mi Calm Calm - N/A   Haze
1:53 PM 51.1 °F - 46.0 °F 83% 29.90 in 6.0 mi Calm Calm - N/A   Haze
2:53 PM 51.8 °F - 46.4 °F 82% 29.89 in 10.0 mi SSW 4.6 mph - N/A   Scattered Clouds
3:53 PM 53.1 °F - 46.0 °F 77% 29.89 in 10.0 mi South 6.9 mph - N/A   Partly Cloudy
4:53 PM 52.0 °F - 46.0 °F 80% 29.87 in 10.0 mi SSW 5.8 mph - N/A   Partly Cloudy
5:53 PM 48.9 °F - 45.0 °F 86% 29.86 in 10.0 mi SW 5.8 mph - N/A   Partly Cloudy
6:53 PM 48.9 °F - 45.0 °F 86% 29.84 in 10.0 mi Calm Calm - N/A   Clear
7:53 PM 48.0 °F - 44.1 °F 86% 29.86 in 10.0 mi Calm Calm - N/A   Clear
8:53 PM 46.9 °F - 43.0 °F 86% 29.88 in 9.0 mi SW 4.6 mph - N/A   Clear
9:53 PM 44.1 °F 40.8 °F 43.0 °F 96% 29.90 in 6.0 mi SSW 5.8 mph - N/A   Scattered Clouds
10:53 PM 45.0 °F 42.6 °F 43.0 °F 93% 29.91 in 5.0 mi South 4.6 mph - N/A   Partly Cloudy
11:53 PM 41.0 °F 35.8 °F 37.0 °F 86% 29.92 in 10.0 mi SSW 8.1 mph - N/A   Clear